Location: Staunton
(38.1490°N, 79.0720°W)
Time: 14:32:27
(UTC-04:00)

ISS - Pass Details

Date: 16 July 2019
Orbit: 409 x 418 km, 51.6° (Epoch: 20 July)

Event Time Altitude Azimuth Distance (km) Brightness Sun altitude
Rises 04:57:11 0° 314° (NW) 2,341 0.0 -12.0°
Reaches altitude 10° 04:59:21 10° 321° (NW) 1,475 -1.0 -11.7°
Maximum altitude 05:02:32 43° 35° (NE) 582 -2.5 -11.2°
Drops below altitude 10° 05:05:41 10° 109° (ESE) 1,466 -0.5 -10.7°
Sets 05:07:49 0° 116° (ESE) 2,323 0.4 -10.4°
